Home > Time Zones > World Clock > Weather > Ghana > Accra > Past weeks

Flag for Ghana Weather past 2 weeks in Accra, Ghana

Now
81 °F

Partly sunny.


Feels Like: 86 °F
Forecast: 75 / 80 °F
Wind: 17 mph from South

Location: Accra Airport

Current Time: Jul 3, 2015 at 11:36:11 AM

Latest Report: Jul 3, 2015 at 11:00 AM


Visibility: N/A

Pressure: 29.98 "Hg

Humidity: 84%

Dew point: 75 °F

Location of AccraLocation

Historic Weather in Accra — Graph

°F

Accra temperature yesterday

Maximum temperature yesterday: 82 °F (at 12:00 PM)
Minimum temperature yesterday: 72 °F (at 8:00 PM)
Average temperature yesterday: 78 °F

Past Weeks' High & Low Weather Summary

 TemperatureHumidityPressure
High144 °F (Jun 29, 10:00 PM)100% (Jun 20, 8:00 PM)30.09 "Hg (Jun 20, 8:00 PM)
Low72 °F (Jun 20, 8:00 PM)13% (Jun 29, 10:00 PM)29.86 "Hg (Jun 18, 3:00 PM)
Average79 °F86%29.98 "Hg
* Reported Jun 18 10:00 AM — Jul 3 10:00 AM, Accra, Weather by CustomWeather, © 2015

Note: Actual official high and low records may vary slightly from our data, if they occured in-between our weather recording intervals... More about our weather records

Advertising

Accra weather history for previous 24 hours

 ConditionsComfort  
Time TempWeatherWind HumidityBarometerVisibility
10:00 AM
Fri, Jul 3
79 °FMostly cloudy.12 mph89%29.98 "HgN/A
9:00 AM79 °FPartly sunny.15 mph89%29.98 "HgN/A
8:00 AM77 °FPartly sunny.13 mph94%29.95 "HgN/A
7:00 AM77 °FMostly cloudy.13 mph94%29.95 "Hg4 mi
6:00 AM75 °FMostly cloudy.8 mph100%29.92 "HgN/A
5:00 AM77 °FLow clouds.8 mph94%29.92 "HgN/A
4:00 AM77 °FLow clouds.10 mph94%29.89 "HgN/A
3:00 AM75 °FMostly cloudy.7 mph100%29.89 "HgN/A
2:00 AM75 °FMostly cloudy.10 mph100%29.89 "HgN/A
1:00 AM75 °FMostly cloudy.10 mph100%29.92 "HgN/A
12:00 AM73 °FPassing clouds.9 mph100%29.92 "HgN/A
11:00 PM
Thu, Jul 2
73 °FClear.10 mph100%29.95 "Hg10 mi
10:00 PM73 °FLight rain. Passing clouds.7 mph100%29.95 "HgN/A
9:00 PM72 °FRain. Passing clouds.7 mph100%29.98 "Hg5 mi
8:00 PM72 °FRain. Mostly cloudy.17 mph100%29.98 "Hg3 mi
7:00 PM79 °FPartly cloudy.14 mph89%29.95 "HgN/A
6:00 PM79 °FPartly sunny.18 mph89%29.92 "HgN/A
5:00 PM81 °FPartly sunny.22 mph84%29.89 "HgN/A
4:00 PM81 °FPartly sunny.21 mph84%29.86 "HgN/A
3:00 PM82 °FPassing clouds.21 mph79%29.86 "HgN/A
2:00 PM82 °FScattered clouds.23 mph79%29.89 "HgN/A
1:00 PM82 °FPartly sunny.21 mph79%29.92 "HgN/A
12:00 PM82 °FMostly cloudy.17 mph79%29.98 "HgN/A
11:00 AM81 °FPartly sunny.15 mph84%29.98 "HgN/A
Weather by CustomWeather, © 2015

See weather overviewHow to use our weather pages